Flag for U.S.A. Weather past 2 weeks in Paradise, Nevada, U.S.A.

Now
50 °F

Passing clouds.


Feels Like: 43 °F
Forecast: 43 / 51 °F
Wind: 21 mph from Northwest

Location: McCarran International Airport

Current Time: Dec 25, 2014 at 12:09:54 PM

Latest Report: Dec 25, 2014 at 10:56 AM


Visibility: 10 mi

Pressure: 29.79 "Hg

Humidity: 17%

Dew point: 6 °F

Location of ParadiseLocation

Historic Weather in Paradise — Graph

°F

Paradise temperature yesterday

Maximum temperature yesterday: 57 °F (at 11:56 PM)
Minimum temperature yesterday: 40 °F (at 4:56 AM)
Average temperature yesterday: 47 °F

Past Weeks' High & Low Weather Summary

 TemperatureHumidityPressure
High74 °F (Dec 22, 1:56 PM)86% (Dec 12, 4:56 PM)30.28 "Hg (Dec 12, 4:56 PM)
Low40 °F (Dec 14, 6:56 AM)17% (Dec 25, 10:56 AM)29.54 "Hg (Dec 24, 11:56 PM)
Average51 °F53%30.02 "Hg
* Reported Dec 10 10:56 AM — Dec 25 10:56 AM, Paradise, Weather by CustomWeather, © 2014

Note: Actual official high and low records may vary slightly from our data, if they occured in-between our weather recording intervals... More about our weather records

Advertising

Paradise weather history for previous 24 hours

 ConditionsComfort  
Time TempWeatherWind HumidityBarometerVisibility
10:56 AM
Dec 25
50 °FPassing clouds.21 mph17%29.79 "Hg10 mi
9:56 AM50 °FPassing clouds.18 mph20%29.80 "Hg10 mi
8:56 AM49 °FPassing clouds.26 mph25%29.76 "Hg10 mi
7:56 AM48 °FPassing clouds.23 mph28%29.75 "Hg10 mi
6:56 AM48 °FPassing clouds.22 mph30%29.72 "Hg10 mi
5:56 AM48 °FPassing clouds.14 mph30%29.70 "Hg10 mi
4:56 AM49 °FPassing clouds.17 mph29%29.65 "Hg10 mi
3:56 AM51 °FMostly cloudy.26 mph28%29.62 "Hg10 mi
2:56 AM51 °FOvercast.13 mph38%29.62 "Hg10 mi
1:56 AM50 °FOvercast.24 mph44%29.61 "Hg10 mi
12:56 AM52 °FOvercast.18 mph34%29.59 "Hg10 mi
11:56 PM
Dec 24
57 °FPassing clouds.10 mph36%29.54 "Hg10 mi
10:56 PM45 °FPassing clouds.8 mph38%29.55 "Hg10 mi
9:56 PM44 °FClear.3 mph38%29.57 "Hg10 mi
8:56 PM44 °FClear.8 mph41%29.64 "Hg10 mi
7:56 PM45 °FPassing clouds.7 mph38%29.67 "Hg10 mi
6:56 PM47 °FPassing clouds.5 mph36%29.72 "Hg10 mi
5:56 PM48 °FPassing clouds.6 mph33%29.77 "Hg10 mi
4:56 PM49 °FPassing clouds.8 mph31%29.80 "Hg10 mi
3:56 PM50 °FPartly sunny.5 mph27%29.85 "Hg10 mi
2:56 PM51 °FPartly sunny.5 mph25%29.89 "Hg10 mi
1:56 PM52 °FPartly sunny.No wind27%29.92 "Hg10 mi
12:56 PM51 °FPartly sunny.3 mph27%29.95 "Hg10 mi
Weather by CustomWeather, © 2014

See weather overviewHow to use our weather pages